WXM80 ListenWXM80 Stop

You find our weather info also at:

UK Metoffice

WeatherCloud

Weather Underground

Northeastern Weather Network

AWEKAS

Citizen Weather Observer Program (CWOP)

HAMweather, WeatherForYou, PWS Weather


Weather Underground History page Text

Daily Summary for December 25, 2016 Units:  English    Metric   Both
« Previous Day
Next Day »
Daily Weekly Monthly Yearly Custom
  High: Low: Average:
Temperature: 48.7 °F 34.8 °F 40.7 °F
Dew Point: 38.8 °F 21.9 °F 33.1 °F
Humidity: 93 % 54 % 75 %
Wind Speed: 9.8 mph 0.0 mph 3.3 mph
Wind Gust: 29.0 mph - -
Wind:- - South
Pressure: 30.68 in 30.24 in -
Precipitation: 0.00 in    
Historical Graphs
 
 
Tabular Data for December 25, 2016
Time Temperature Dew Point Pressure Wind Wind Speed Wind Gust Humidity Rainfall Rate (Hourly)
00:01 41.6 °F 37.4 °F 30.24 in Calm   29.0 mph 85 % 0.00 in
00:06 41.3 °F 37.1 °F 30.24 in NW 2.2 mph 29.0 mph 85 % 0.00 in
00:11 41.1 °F 36.9 °F 30.24 in WNW 1.8 mph 29.0 mph 85 % 0.00 in
00:16 41.0 °F 36.8 °F 30.24 in WNW 4.4 mph 29.0 mph 85 % 0.00 in
00:21 40.9 °F 36.7 °F 30.24 in WNW 1.6 mph 29.0 mph 85 % 0.00 in
00:26 40.8 °F 36.6 °F 30.24 in SW 1.5 mph 29.0 mph 85 % 0.00 in
00:31 40.7 °F 36.2 °F 30.25 in WNW 0.2 mph 29.0 mph 84 % 0.00 in
00:36 40.6 °F 36.4 °F 30.25 in WNW 3.4 mph 29.0 mph 85 % 0.00 in
00:41 40.6 °F 36.4 °F 30.25 in NW 2.2 mph 29.0 mph 85 % 0.00 in
00:46 40.5 °F 36.3 °F 30.25 in NW 3.0 mph 29.0 mph 85 % 0.00 in
00:51 40.5 °F 36.3 °F 30.25 in WSW 2.9 mph 29.0 mph 85 % 0.00 in
00:57 40.4 °F 36.2 °F 30.25 in West 4.1 mph 29.0 mph 85 % 0.00 in
01:02 40.4 °F 36.2 °F 30.26 in NW 2.0 mph 29.0 mph 85 % 0.00 in
01:07 40.3 °F 36.1 °F 30.26 in West 1.1 mph 29.0 mph 85 % 0.00 in
01:12 40.2 °F 36.1 °F 30.26 in West 1.5 mph 29.0 mph 85 % 0.00 in
01:17 40.2 °F 36.1 °F 30.26 in WNW 2.4 mph 29.0 mph 85 % 0.00 in
01:22 40.2 °F 36.1 °F 30.26 in WNW 2.5 mph 29.0 mph 85 % 0.00 in
01:27 40.1 °F 36.0 °F 30.26 in WNW 3.0 mph 29.0 mph 85 % 0.00 in
01:32 40.1 °F 36.0 °F 30.26 in West 1.7 mph 29.0 mph 85 % 0.00 in
01:37 40.0 °F 35.9 °F 30.26 in West 2.4 mph 29.0 mph 85 % 0.00 in
01:42 40.0 °F 35.6 °F 30.26 in West 0.3 mph 29.0 mph 84 % 0.00 in
01:47 39.9 °F 35.5 °F 30.26 in SW 2.5 mph 29.0 mph 84 % 0.00 in
01:52 39.8 °F 35.7 °F 30.26 in WSW 1.8 mph 29.0 mph 85 % 0.00 in
01:57 39.8 °F 35.7 °F 30.27 in West 1.2 mph 29.0 mph 85 % 0.00 in
02:02 39.7 °F 35.6 °F 30.27 in West 2.3 mph 29.0 mph 85 % 0.00 in
02:08 39.7 °F 35.6 °F 30.27 in West 0.2 mph 29.0 mph 85 % 0.00 in
02:13 39.6 °F 35.5 °F 30.26 in WNW 2.2 mph 29.0 mph 85 % 0.00 in
02:18 39.6 °F 35.5 °F 30.27 in West 2.4 mph 29.0 mph 85 % 0.00 in
02:23 39.5 °F 35.4 °F 30.27 in West 1.7 mph 29.0 mph 85 % 0.00 in
02:28 39.4 °F 35.6 °F 30.27 in West 0.2 mph 29.0 mph 86 % 0.00 in
02:33 39.4 °F 35.6 °F 30.27 in West 1.4 mph 29.0 mph 86 % 0.00 in
02:43 39.2 °F 35.1 °F 30.27 in West 2.6 mph 29.0 mph 85 % 0.00 in
02:48 39.2 °F 35.1 °F 30.27 in West 2.3 mph 29.0 mph 85 % 0.00 in
02:53 39.1 °F 35.0 °F 30.27 in WNW 1.3 mph 29.0 mph 85 % 0.00 in
02:58 39.1 °F 35.3 °F 30.27 in WNW 0.7 mph 29.0 mph 86 % 0.00 in
03:03 39.0 °F 35.2 °F 30.28 in WNW 0.9 mph 29.0 mph 86 % 0.00 in
03:08 38.9 °F 35.1 °F 30.28 in WSW 2.0 mph 29.0 mph 86 % 0.00 in
03:13 38.9 °F 35.1 °F 30.28 in West 0.6 mph 29.0 mph 86 % 0.00 in
03:18 38.9 °F 35.1 °F 30.28 in West 2.8 mph 29.0 mph 86 % 0.00 in
03:24 38.8 °F 35.0 °F 30.28 in West 0.3 mph 29.0 mph 86 % 0.00 in
03:29 38.7 °F 34.9 °F 30.28 in WSW 1.8 mph 29.0 mph 86 % 0.00 in
03:34 38.6 °F 34.8 °F 30.28 in West 2.3 mph 29.0 mph 86 % 0.00 in
03:39 38.5 °F 34.7 °F 30.29 in WNW 2.4 mph 29.0 mph 86 % 0.00 in
03:44 38.5 °F 34.7 °F 30.29 in West 3.8 mph 29.0 mph 86 % 0.00 in
03:49 38.4 °F 34.6 °F 30.28 in West 2.2 mph 29.0 mph 86 % 0.00 in
03:54 38.4 °F 34.3 °F 30.28 in West 0.6 mph 29.0 mph 85 % 0.00 in
03:59 38.4 °F 34.3 °F 30.28 in WNW 3.0 mph 29.0 mph 85 % 0.00 in
04:04 38.3 °F 34.2 °F 30.29 in West 3.3 mph 29.0 mph 85 % 0.00 in
04:09 38.3 °F 34.2 °F 30.29 in West 2.0 mph 5.0 mph 85 % 0.00 in
04:14 38.3 °F 34.2 °F 30.28 in WSW 1.0 mph 4.0 mph 85 % 0.00 in
04:20 38.2 °F 34.1 °F 30.28 in West 2.6 mph 29.0 mph 85 % 0.00 in
04:25 38.2 °F 34.1 °F 30.28 in WSW 0.3 mph 29.0 mph 85 % 0.00 in
04:30 38.2 °F 34.1 °F 30.28 in SW 0.6 mph 29.0 mph 85 % 0.00 in
04:35 38.1 °F 34.0 °F 30.28 in WNW 1.6 mph 29.0 mph 85 % 0.00 in
04:40 38.1 °F 34.0 °F 30.29 in WNW 0.5 mph 29.0 mph 85 % 0.00 in
04:45 38.0 °F 33.9 °F 30.28 in West 1.7 mph 29.0 mph 85 % 0.00 in
04:50 38.0 °F 33.9 °F 30.28 in West 1.5 mph 29.0 mph 85 % 0.00 in
04:55 38.0 °F 33.9 °F 30.29 in WSW 2.1 mph 29.0 mph 85 % 0.00 in
05:00 37.9 °F 33.8 °F 30.29 in SSW 0.8 mph 29.0 mph 85 % 0.00 in
05:06 37.9 °F 33.8 °F 30.29 in SSW 0.7 mph 29.0 mph 85 % 0.00 in
05:11 37.8 °F 33.7 °F 30.30 in WSW 2.1 mph 29.0 mph 85 % 0.00 in
05:16 37.6 °F 33.8 °F 30.30 in WSW 0.9 mph 29.0 mph 86 % 0.00 in
05:21 37.4 °F 33.6 °F 30.30 in WSW 1.1 mph 29.0 mph 86 % 0.00 in
05:26 37.2 °F 33.1 °F 30.30 in SW 1.1 mph 29.0 mph 85 % 0.00 in
05:31 36.9 °F 33.1 °F 30.30 in SW 1.8 mph 29.0 mph 86 % 0.00 in
05:36 36.7 °F 32.9 °F 30.31 in SW 0.8 mph 29.0 mph 86 % 0.00 in
05:41 36.5 °F 32.7 °F 30.31 in SSW 1.5 mph 29.0 mph 86 % 0.00 in
05:46 36.2 °F 32.4 °F 30.31 in SSW 2.0 mph 29.0 mph 86 % 0.00 in
05:51 36.0 °F 32.5 °F 30.31 in SW 2.2 mph 29.0 mph 87 % 0.00 in
05:56 35.8 °F 32.3 °F 30.31 in WSW 1.2 mph 29.0 mph 87 % 0.00 in
06:01 35.7 °F 32.2 °F 30.31 in SW 1.5 mph 29.0 mph 87 % 0.00 in
06:06 35.5 °F 32.0 °F 30.31 in SSW 1.3 mph 29.0 mph 87 % 0.00 in
06:11 35.3 °F 32.1 °F 30.32 in SW 1.3 mph 29.0 mph 88 % 0.00 in
06:17 35.2 °F 32.0 °F 30.32 in SW 1.5 mph 29.0 mph 88 % 0.00 in
06:22 35.0 °F 32.1 °F 30.33 in SW 1.7 mph 29.0 mph 89 % 0.00 in
06:27 35.0 °F 32.1 °F 30.33 in SW 1.9 mph 29.0 mph 89 % 0.00 in
06:32 34.9 °F 32.3 °F 30.33 in SW 0.2 mph 29.0 mph 90 % 0.00 in
06:37 34.9 °F 32.3 °F 30.33 in WSW 0.3 mph 29.0 mph 90 % 0.00 in
06:42 34.8 °F 32.2 °F 30.34 in West 0.6 mph 29.0 mph 90 % 0.00 in
06:47 34.9 °F 32.5 °F 30.34 in WSW 0.5 mph 29.0 mph 91 % 0.00 in
06:52 35.0 °F 32.6 °F 30.34 in SW 1.5 mph 29.0 mph 91 % 0.00 in
06:57 35.1 °F 32.7 °F 30.34 in SW 2.8 mph 29.0 mph 91 % 0.00 in
07:02 35.2 °F 32.8 °F 30.34 in SW 1.3 mph 29.0 mph 91 % 0.00 in
07:07 35.2 °F 32.8 °F 30.34 in SW 1.6 mph 29.0 mph 91 % 0.00 in
07:12 35.1 °F 32.7 °F 30.34 in WSW 1.1 mph 29.0 mph 91 % 0.00 in
07:17 35.1 °F 32.7 °F 30.35 in SW 1.5 mph 29.0 mph 91 % 0.00 in
07:23 35.0 °F 32.4 °F 30.36 in WSW 1.4 mph 29.0 mph 90 % 0.00 in
07:28 35.0 °F 32.6 °F 30.35 in WSW 2.1 mph 29.0 mph 91 % 0.00 in
07:33 34.9 °F 32.5 °F 30.36 in SW 1.5 mph 29.0 mph 91 % 0.00 in
07:38 34.9 °F 32.3 °F 30.36 in SW 0.9 mph 29.0 mph 90 % 0.00 in
07:43 34.9 °F 32.5 °F 30.36 in SW 2.2 mph 29.0 mph 91 % 0.00 in
07:48 34.8 °F 32.4 °F 30.36 in SW 1.6 mph 29.0 mph 91 % 0.00 in
07:53 34.8 °F 32.4 °F 30.36 in SW 2.1 mph 29.0 mph 91 % 0.00 in
07:58 34.9 °F 32.5 °F 30.37 in SW 1.0 mph 29.0 mph 91 % 0.00 in
08:03 34.9 °F 32.8 °F 30.37 in SSW 1.5 mph 29.0 mph 92 % 0.00 in
08:08 35.0 °F 32.9 °F 30.37 in SW 2.5 mph 29.0 mph 92 % 0.00 in
08:13 35.1 °F 33.0 °F 30.37 in SW 1.7 mph 29.0 mph 92 % 0.00 in
08:18 35.3 °F 33.2 °F 30.37 in SW 1.5 mph 29.0 mph 92 % 0.00 in
08:23 35.5 °F 33.7 °F 30.38 in WSW 4.6 mph 29.0 mph 93 % 0.00 in
08:28 35.9 °F 34.1 °F 30.38 in WSW 4.2 mph 29.0 mph 93 % 0.00 in
08:33 36.4 °F 34.6 °F 30.38 in West 3.5 mph 29.0 mph 93 % 0.00 in
08:38 36.9 °F 34.8 °F 30.38 in SW 1.7 mph 29.0 mph 92 % 0.00 in
08:43 37.3 °F 34.9 °F 30.38 in WNW 3.8 mph 29.0 mph 91 % 0.00 in
08:49 37.7 °F 35.3 °F 30.38 in WSW 3.7 mph 29.0 mph 91 % 0.00 in
08:54 38.1 °F 35.4 °F 30.38 in NW 2.3 mph 29.0 mph 90 % 0.00 in
08:59 38.5 °F 35.5 °F 30.39 in WNW 3.5 mph 29.0 mph 89 % 0.00 in
09:04 39.0 °F 35.7 °F 30.39 in WNW 4.2 mph 29.0 mph 88 % 0.00 in
09:09 39.3 °F 35.8 °F 30.39 in WNW 4.0 mph 29.0 mph 87 % 0.00 in
09:14 39.7 °F 35.9 °F 30.40 in West 1.8 mph 29.0 mph 86 % 0.00 in
09:19 39.9 °F 35.8 °F 30.40 in WNW 1.6 mph 29.0 mph 85 % 0.00 in
09:24 40.3 °F 35.8 °F 30.40 in WNW 3.5 mph 29.0 mph 84 % 0.00 in
09:29 40.5 °F 35.7 °F 30.40 in West 1.4 mph 29.0 mph 83 % 0.00 in
09:34 40.8 °F 35.7 °F 30.41 in West 3.2 mph 29.0 mph 82 % 0.00 in
09:39 41.0 °F 35.6 °F 30.41 in WNW 1.9 mph 29.0 mph 81 % 0.00 in
09:44 41.3 °F 36.2 °F 30.41 in SW 3.6 mph 29.0 mph 82 % 0.00 in
09:49 41.5 °F 35.8 °F 30.42 in West 3.0 mph 8.0 mph 80 % 0.00 in
09:54 41.8 °F 35.7 °F 30.42 in West 1.0 mph 7.0 mph 79 % 0.00 in
09:59 42.1 °F 36.1 °F 30.42 in West 1.3 mph 29.0 mph 79 % 0.00 in
10:04 42.3 °F 35.9 °F 30.42 in NW 4.5 mph 29.0 mph 78 % 0.00 in
10:10 42.7 °F 36.0 °F 30.42 in WNW 1.9 mph 29.0 mph 77 % 0.00 in
10:15 42.9 °F 35.9 °F 30.43 in NW 2.6 mph 29.0 mph 76 % 0.00 in
10:20 43.2 °F 36.1 °F 30.43 in WNW 3.7 mph 29.0 mph 76 % 0.00 in
10:25 43.4 °F 35.7 °F 30.43 in WNW 2.7 mph 29.0 mph 74 % 0.00 in
10:30 43.7 °F 36.0 °F 30.43 in North 2.9 mph 29.0 mph 74 % 0.00 in
10:35 43.9 °F 35.8 °F 30.43 in West 5.2 mph 29.0 mph 73 % 0.00 in
10:40 44.0 °F 35.9 °F 30.43 in West 1.5 mph 29.0 mph 73 % 0.00 in
10:45 44.1 °F 35.6 °F 30.43 in WNW 3.4 mph 29.0 mph 72 % 0.00 in
10:50 44.2 °F 35.7 °F 30.43 in NW 1.6 mph 29.0 mph 72 % 0.00 in
10:55 44.3 °F 35.8 °F 30.44 in West 1.2 mph 29.0 mph 72 % 0.00 in
11:00 44.3 °F 35.8 °F 30.43 in NW 2.6 mph 29.0 mph 72 % 0.00 in
11:05 44.4 °F 35.6 °F 30.43 in WNW 3.9 mph 29.0 mph 71 % 0.00 in
11:10 44.5 °F 35.7 °F 30.43 in WNW 4.9 mph 29.0 mph 71 % 0.00 in
11:15 44.5 °F 35.7 °F 30.43 in WNW 3.6 mph 29.0 mph 71 % 0.00 in
11:20 44.4 °F 35.9 °F 30.43 in NW 3.1 mph 29.0 mph 72 % 0.00 in
11:25 44.4 °F 35.9 °F 30.43 in NNW 2.1 mph 29.0 mph 72 % 0.00 in
11:31 44.4 °F 35.9 °F 30.43 in WSW 3.0 mph 29.0 mph 72 % 0.00 in
11:36 44.5 °F 36.0 °F 30.42 in NW 2.1 mph 29.0 mph 72 % 0.00 in
11:41 44.5 °F 35.7 °F 30.42 in NW 4.3 mph 29.0 mph 71 % 0.00 in
11:46 44.5 °F 36.0 °F 30.42 in NW 2.3 mph 29.0 mph 72 % 0.00 in
11:51 44.5 °F 36.0 °F 30.43 in WNW 4.2 mph 29.0 mph 72 % 0.00 in
11:56 44.5 °F 36.0 °F 30.42 in WNW 2.9 mph 29.0 mph 72 % 0.00 in
12:01 44.6 °F 36.1 °F 30.43 in WNW 4.1 mph 29.0 mph 72 % 0.00 in
12:06 44.7 °F 36.2 °F 30.43 in WNW 2.3 mph 29.0 mph 72 % 0.00 in
12:11 45.0 °F 36.9 °F 30.43 in NW 1.6 mph 29.0 mph 73 % 0.00 in
12:16 45.2 °F 36.4 °F 30.43 in NNW 2.7 mph 29.0 mph 71 % 0.00 in
12:22 45.5 °F 37.0 °F 30.43 in North 3.3 mph 29.0 mph 72 % 0.00 in
12:27 45.9 °F 36.7 °F 30.43 in NNW 2.6 mph 29.0 mph 70 % 0.00 in
12:32 46.3 °F 36.7 °F 30.43 in NW 2.0 mph 29.0 mph 69 % 0.00 in
12:37 46.6 °F 37.3 °F 30.43 in NNW 2.6 mph 29.0 mph 70 % 0.00 in
12:42 46.9 °F 37.6 °F 30.43 in NNW 3.1 mph 29.0 mph 70 % 0.00 in
12:47 47.2 °F 37.9 °F 30.43 in North 1.5 mph 29.0 mph 70 % 0.00 in
12:52 47.4 °F 37.7 °F 30.43 in NNW 1.6 mph 29.0 mph 69 % 0.00 in
12:57 47.6 °F 37.9 °F 30.43 in NNW 3.1 mph 29.0 mph 69 % 0.00 in
13:02 47.8 °F 38.8 °F 30.43 in North 0.5 mph 29.0 mph 71 % 0.00 in
13:07 48.0 °F 38.7 °F 30.44 in NE 3.1 mph 29.0 mph 70 % 0.00 in
13:12 48.2 °F 38.1 °F 30.44 in NNE 3.3 mph 29.0 mph 68 % 0.00 in
13:17 48.3 °F 37.5 °F 30.44 in NNE 5.7 mph 29.0 mph 66 % 0.00 in
13:22 48.4 °F 38.3 °F 30.44 in NNE 3.2 mph 29.0 mph 68 % 0.00 in
13:27 48.4 °F 37.9 °F 30.44 in North 2.1 mph 29.0 mph 67 % 0.00 in
13:32 48.5 °F 38.4 °F 30.45 in North 2.2 mph 29.0 mph 68 % 0.00 in
13:37 48.5 °F 38.0 °F 30.45 in NE 3.6 mph 29.0 mph 67 % 0.00 in
13:42 48.5 °F 38.4 °F 30.45 in North 4.8 mph 29.0 mph 68 % 0.00 in
13:48 48.6 °F 37.7 °F 30.45 in North 5.3 mph 29.0 mph 66 % 0.00 in
13:53 48.6 °F 37.7 °F 30.45 in NNE 3.8 mph 29.0 mph 66 % 0.00 in
13:58 48.6 °F 38.1 °F 30.45 in NNE 1.8 mph 29.0 mph 67 % 0.00 in
14:03 48.6 °F 38.1 °F 30.45 in NNE 2.7 mph 29.0 mph 67 % 0.00 in
14:08 48.7 °F 38.6 °F 30.45 in NNE 2.6 mph 29.0 mph 68 % 0.00 in
14:13 48.6 °F 38.5 °F 30.45 in NE 2.9 mph 29.0 mph 68 % 0.00 in
14:18 48.5 °F 38.4 °F 30.45 in NNE 0.8 mph 29.0 mph 68 % 0.00 in
14:23 48.3 °F 37.8 °F 30.46 in NNE 3.4 mph 29.0 mph 67 % 0.00 in
14:28 48.0 °F 36.8 °F 30.46 in North 2.7 mph 29.0 mph 65 % 0.00 in
14:33 47.8 °F 36.2 °F 30.46 in NE 4.1 mph 29.0 mph 64 % 0.00 in
14:38 47.5 °F 35.5 °F 30.46 in NE 4.8 mph 29.0 mph 63 % 0.00 in
14:43 47.2 °F 35.6 °F 30.46 in NNE 3.4 mph 29.0 mph 64 % 0.00 in
14:48 47.0 °F 35.0 °F 30.46 in North 0.9 mph 29.0 mph 63 % 0.00 in
14:53 46.9 °F 35.4 °F 30.47 in North 3.5 mph 29.0 mph 64 % 0.00 in
14:58 46.7 °F 35.6 °F 30.47 in NNE 1.0 mph 29.0 mph 65 % 0.00 in
15:03 46.5 °F 35.4 °F 30.47 in NE 3.7 mph 29.0 mph 65 % 0.00 in
15:08 46.4 °F 35.3 °F 30.48 in North 4.0 mph 29.0 mph 65 % 0.00 in
15:13 46.2 °F 35.1 °F 30.48 in NNE 5.1 mph 29.0 mph 65 % 0.00 in
15:19 46.1 °F 35.0 °F 30.48 in NNE 5.1 mph 29.0 mph 65 % 0.00 in
15:24 46.0 °F 35.7 °F 30.48 in NNE 4.4 mph 29.0 mph 67 % 0.00 in
15:29 45.8 °F 35.5 °F 30.48 in NNE 2.0 mph 29.0 mph 67 % 0.00 in
15:34 45.7 °F 35.0 °F 30.49 in NNE 3.3 mph 29.0 mph 66 % 0.00 in
15:39 45.6 °F 35.3 °F 30.49 in NNE 4.1 mph 29.0 mph 67 % 0.00 in
15:44 45.4 °F 34.7 °F 30.48 in NNE 4.9 mph 29.0 mph 66 % 0.00 in
15:49 45.2 °F 34.9 °F 30.49 in North 5.3 mph 29.0 mph 67 % 0.00 in
15:54 45.1 °F 35.2 °F 30.49 in NNE 3.6 mph 29.0 mph 68 % 0.00 in
15:59 44.9 °F 35.0 °F 30.49 in North 4.3 mph 29.0 mph 68 % 0.00 in
16:04 44.8 °F 34.9 °F 30.49 in NNE 3.1 mph 29.0 mph 68 % 0.00 in
16:09 44.7 °F 35.1 °F 30.49 in North 3.8 mph 29.0 mph 69 % 0.00 in
16:14 44.5 °F 35.0 °F 30.49 in North 1.7 mph 29.0 mph 69 % 0.00 in
16:19 44.4 °F 35.2 °F 30.50 in NE 2.5 mph 29.0 mph 70 % 0.00 in
16:24 44.3 °F 35.5 °F 30.49 in NNE 1.0 mph 3.0 mph 71 % 0.00 in
16:29 44.2 °F 35.7 °F 30.50 in North 2.0 mph 5.0 mph 72 % 0.00 in
16:34 44.0 °F 35.6 °F 30.51 in NNE 1.4 mph 29.0 mph 72 % 0.00 in
16:39 43.9 °F 35.5 °F 30.51 in North 1.0 mph 4.0 mph 72 % 0.00 in
16:44 43.7 °F 35.6 °F 30.51 in North 1.4 mph 29.0 mph 73 % 0.00 in
16:49 43.5 °F 35.4 °F 30.51 in North 2.0 mph 29.0 mph 73 % 0.00 in
16:54 43.3 °F 34.9 °F 30.52 in North 2.0 mph 5.0 mph 72 % 0.00 in
16:59 43.1 °F 34.7 °F 30.52 in NNW 1.5 mph 29.0 mph 72 % 0.00 in
17:04 43.0 °F 35.0 °F 30.52 in North 2.0 mph 6.0 mph 73 % 0.00 in
17:09 42.9 °F 34.8 °F 30.52 in North 1.0 mph 6.0 mph 73 % 0.00 in
17:14 42.8 °F 35.1 °F 30.53 in NNE 1.2 mph 29.0 mph 74 % 0.00 in
17:19 42.7 °F 35.0 °F 30.53 in North 2.0 mph 4.0 mph 74 % 0.00 in
17:24 42.6 °F 34.9 °F 30.53 in North 1.0 mph 4.0 mph 74 % 0.00 in
17:29 42.6 °F 35.2 °F 30.53 in North 1.0 mph 4.0 mph 75 % 0.00 in
17:34 42.5 °F 35.1 °F 30.53 in North 1.0 mph 4.0 mph 75 % 0.00 in
17:39 42.4 °F 34.7 °F 30.53 in North 5.0 mph 9.0 mph 74 % 0.00 in
17:44 42.3 °F 33.9 °F 30.53 in North 4.8 mph 29.0 mph 72 % 0.00 in
17:49 42.3 °F 34.3 °F 30.54 in North 6.0 mph 7.0 mph 73 % 0.00 in
17:54 42.3 °F 33.6 °F 30.54 in NNE 6.0 mph 10.0 mph 71 % 0.00 in
17:59 42.3 °F 33.2 °F 30.55 in NNE 4.7 mph 29.0 mph 70 % 0.00 in
18:04 42.3 °F 33.6 °F 30.55 in NNE 5.0 mph 9.0 mph 71 % 0.00 in
18:09 42.2 °F 33.1 °F 30.55 in NE 7.1 mph 29.0 mph 70 % 0.00 in
18:15 42.2 °F 33.5 °F 30.55 in NNE 5.5 mph 29.0 mph 71 % 0.00 in
18:20 42.1 °F 33.4 °F 30.56 in NNE 7.3 mph 29.0 mph 71 % 0.00 in
18:25 42.0 °F 33.3 °F 30.56 in NNE 6.0 mph 29.0 mph 71 % 0.00 in
18:30 42.0 °F 32.9 °F 30.56 in North 6.6 mph 29.0 mph 70 % 0.00 in
18:35 41.9 °F 32.8 °F 30.56 in NNE 7.5 mph 29.0 mph 70 % 0.00 in
18:40 41.8 °F 32.4 °F 30.56 in NNE 5.8 mph 29.0 mph 69 % 0.00 in
18:45 41.8 °F 32.7 °F 30.57 in NNE 5.7 mph 29.0 mph 70 % 0.00 in
18:50 41.7 °F 33.0 °F 30.57 in North 5.4 mph 29.0 mph 71 % 0.00 in
18:55 41.6 °F 32.9 °F 30.57 in North 6.3 mph 29.0 mph 71 % 0.00 in
19:00 41.5 °F 32.8 °F 30.58 in NNE 8.1 mph 29.0 mph 71 % 0.00 in
19:05 41.5 °F 33.1 °F 30.58 in NNE 9.3 mph 29.0 mph 72 % 0.00 in
19:10 41.4 °F 32.7 °F 30.58 in NE 6.8 mph 29.0 mph 71 % 0.00 in
19:16 41.3 °F 32.2 °F 30.58 in NNE 5.9 mph 29.0 mph 70 % 0.00 in
19:21 41.2 °F 31.4 °F 30.58 in NNE 6.3 mph 29.0 mph 68 % 0.00 in
19:26 41.1 °F 31.0 °F 30.58 in NNE 4.3 mph 29.0 mph 67 % 0.00 in
19:31 41.0 °F 30.5 °F 30.59 in NE 5.1 mph 29.0 mph 66 % 0.00 in
19:36 40.9 °F 30.4 °F 30.59 in NE 4.2 mph 29.0 mph 66 % 0.00 in
19:41 40.7 °F 30.2 °F 30.60 in NE 4.9 mph 29.0 mph 66 % 0.00 in
19:46 40.6 °F 30.1 °F 30.60 in NE 6.2 mph 29.0 mph 66 % 0.00 in
19:51 40.4 °F 29.6 °F 30.60 in ENE 5.0 mph 29.0 mph 65 % 0.00 in
19:56 40.4 °F 29.2 °F 30.60 in NE 5.7 mph 29.0 mph 64 % 0.00 in
20:01 40.2 °F 29.0 °F 30.60 in ENE 5.8 mph 29.0 mph 64 % 0.00 in
20:06 40.2 °F 29.0 °F 30.62 in ENE 3.1 mph 29.0 mph 64 % 0.00 in
20:11 40.0 °F 29.6 °F 30.62 in NNE 3.0 mph 29.0 mph 66 % 0.00 in
20:16 39.9 °F 27.1 °F 30.62 in ENE 5.6 mph 29.0 mph 60 % 0.00 in
20:21 39.8 °F 27.4 °F 30.62 in East 4.9 mph 29.0 mph 61 % 0.00 in
20:27 39.7 °F 26.9 °F 30.63 in NE 7.4 mph 29.0 mph 60 % 0.00 in
20:32 39.6 °F 26.0 °F 30.64 in NE 4.6 mph 29.0 mph 58 % 0.00 in
20:37 39.5 °F 25.5 °F 30.63 in ENE 5.7 mph 29.0 mph 57 % 0.00 in
20:42 39.4 °F 26.2 °F 30.64 in ENE 7.3 mph 29.0 mph 59 % 0.00 in
20:47 39.3 °F 26.6 °F 30.63 in NNE 4.4 mph 29.0 mph 60 % 0.00 in
20:52 39.2 °F 26.9 °F 30.65 in NE 3.9 mph 29.0 mph 61 % 0.00 in
20:57 39.0 °F 25.5 °F 30.64 in NE 5.1 mph 29.0 mph 58 % 0.00 in
21:02 38.8 °F 24.0 °F 30.64 in NNE 5.0 mph 29.0 mph 55 % 0.00 in
21:07 38.7 °F 23.9 °F 30.65 in ENE 7.4 mph 29.0 mph 55 % 0.00 in
21:12 38.6 °F 25.1 °F 30.64 in NE 3.9 mph 29.0 mph 58 % 0.00 in
21:17 38.5 °F 24.1 °F 30.64 in NE 7.9 mph 29.0 mph 56 % 0.00 in
21:22 38.4 °F 23.6 °F 30.64 in NE 5.1 mph 29.0 mph 55 % 0.00 in
21:27 38.3 °F 23.1 °F 30.65 in East 8.6 mph 29.0 mph 54 % 0.00 in
21:33 38.1 °F 23.8 °F 30.65 in East 5.5 mph 29.0 mph 56 % 0.00 in
21:38 38.0 °F 23.7 °F 30.66 in ENE 8.7 mph 29.0 mph 56 % 0.00 in
21:43 38.0 °F 23.3 °F 30.65 in NE 6.9 mph 29.0 mph 55 % 0.00 in
21:48 37.9 °F 23.6 °F 30.66 in NNE 6.7 mph 29.0 mph 56 % 0.00 in
21:53 37.8 °F 23.5 °F 30.65 in NE 6.2 mph 29.0 mph 56 % 0.00 in
21:58 37.6 °F 22.4 °F 30.66 in ENE 9.8 mph 29.0 mph 54 % 0.00 in
22:03 37.5 °F 22.8 °F 30.65 in ENE 7.5 mph 29.0 mph 55 % 0.00 in
22:08 37.4 °F 22.7 °F 30.65 in ENE 9.1 mph 29.0 mph 55 % 0.00 in
22:13 37.3 °F 22.6 °F 30.66 in ENE 9.1 mph 29.0 mph 55 % 0.00 in
22:18 37.3 °F 22.6 °F 30.66 in East 9.8 mph 29.0 mph 55 % 0.00 in
22:23 37.1 °F 23.7 °F 30.66 in East 6.5 mph 29.0 mph 58 % 0.00 in
22:28 37.1 °F 24.5 °F 30.67 in ENE 5.7 mph 29.0 mph 60 % 0.00 in
22:33 37.0 °F 23.6 °F 30.67 in NNE 5.2 mph 29.0 mph 58 % 0.00 in
22:38 36.8 °F 23.0 °F 30.67 in ENE 6.0 mph 29.0 mph 57 % 0.00 in
22:43 36.6 °F 23.6 °F 30.68 in ENE 6.9 mph 29.0 mph 59 % 0.00 in
22:49 36.5 °F 23.1 °F 30.68 in ENE 7.7 mph 29.0 mph 58 % 0.00 in
22:54 36.4 °F 23.0 °F 30.67 in NE 5.8 mph 29.0 mph 58 % 0.00 in
22:59 36.2 °F 22.4 °F 30.68 in NE 8.5 mph 29.0 mph 57 % 0.00 in
23:04 36.1 °F 22.7 °F 30.67 in NE 3.4 mph 29.0 mph 58 % 0.00 in
23:09 36.0 °F 22.2 °F 30.67 in NNE 4.7 mph 29.0 mph 57 % 0.00 in
23:14 35.8 °F 22.0 °F 30.67 in NE 7.8 mph 29.0 mph 57 % 0.00 in
23:19 35.7 °F 21.9 °F 30.68 in ENE 7.1 mph 29.0 mph 57 % 0.00 in
23:24 35.6 °F 22.3 °F 30.68 in NE 7.6 mph 29.0 mph 58 % 0.00 in
23:29 35.5 °F 22.6 °F 30.68 in ENE 6.6 mph 29.0 mph 59 % 0.00 in
23:34 35.5 °F 22.6 °F 30.67 in NE 6.6 mph 29.0 mph 59 % 0.00 in
23:39 35.4 °F 22.4 °F 30.67 in ENE 5.0 mph 10.0 mph 59 % 0.00 in
23:44 35.3 °F 22.8 °F 30.68 in East 7.3 mph 29.0 mph 60 % 0.00 in
23:49 35.2 °F 23.1 °F 30.68 in ENE 7.0 mph 12.0 mph 61 % 0.00 in
23:54 35.1 °F 22.2 °F 30.67 in ENE 7.0 mph 13.0 mph 59 % 0.00 in
23:59 35.0 °F 22.9 °F 30.68 in NE 7.4 mph 29.0 mph 61 % 0.00 in
Crab Meadow Weather
Compliments of Weather Underground - 3 mb

Script developed by  Jim McMurry - jmcmurry@mwt.net Adapted for the template by  Wim van der Kuil - Leuven-Template.eu

Weather Terms: Hail - Precipitation in the form of lumps of ice that form during some thunderstorms.